Temperature
20 21 21 22 21 20 20 19 19 20 20 20 18 17 18 18 18 18 18 19 19 19 18 18 17 17 17 17 16 16 16 16 16 16 15 15 15 15 15 15 15 15 15 15
21 21 21 21 21 21 21 20 20 20 20 18 17 17 17 17 17 18 18 18 18 18 18 18 18 17 17 17 16 16 16 16 16 15 15 15 15 15 15 15 15 15 14 14
19 20 21 20 20 20 20 19 19 20 19 16 16 16 16 16 17 17 17 17 18 18 18 18 18 17 17 17 16 16 16 16 15 15 15 15 15 15 15 15 14 14 14 14
17 20 20 19 19 19 18 17 17 17 16 16 15 15 16 17 17 18 18 18 18 18 17 17 17 17 17 17 16 16 16 15 15 15 15 15 15 15 14 14 14 14 14 14
15 17 18 19 19 18 18 17 16 16 16 15 15 16 16 16 17 17 17 18 18 18 17 17 17 17 17 16 16 16 16 15 15 15 15 15 15 14 14 14 14 13 13 13
15 17 17 18 18 18 18 17 17 16 15 15 16 16 16 16 16 17 17 17 17 17 17 17 17 17 16 16 16 16 15 15 15 15 15 15 14 14 13 13 13 12 12 12
15 16 16 17 16 18 18 17 16 16 16 15 15 15 16 16 16 16 17 17 17 17 17 17 16 16 16 16 16 15 15 15 14 14 14 14 14 13 13 12 12 12 11 11
13 16 16 15 16 16 16 15 16 16 16 15 15 15 15 15 15 16 16 16 16 16 16 16 16 16 15 15 15 15 14 14 14 14 13 13 13 12 12 12 11 11 11 10
13 14 14 13 14 15 15 15 16 16 16 16 15 14 15 15 15 15 15 15 15 15 15 15 15 15 14 14 14 14 14 13 13 13 12 12 12 11 11 11 11 10 10 9
13 13 13 13 14 14 15 15 16 16 15 15 14 14 14 14 14 14 14 14 14 14 14 14 14 14 14 13 13 13 13 12 12 12 11 11 10 10 10 10 10 9 9 8
13 13 13 13 14 14 14 15 15 15 15 15 14 14 13 13 13 13 13 13 13 13 13 13 13 13 13 13 13 13 12 12 11 11 10 10 10 9 9 9 8 8 8 8
12 13 12 13 14 14 14 14 14 14 13 13 13 13 13 12 12 12 12 12 12 12 12 12 12 12 12 12 12 12 11 11 10 10 10 9 9 8 8 8 7 7 7 7
13 13 13 13 13 13 13 13 13 13 13 12 12 12 12 12 11 11 11 11 11 11 11 11 11 11 11 11 11 11 11 10 10 9 9 9 8 8 7 6 6 6 6 6
13 13 12 12 12 12 12 12 12 12 12 11 11 11 11 11 11 11 11 10 10 10 10 10 10 10 10 10 10 10 10 9 9 9 8 8 8 7 7 7 6 5 5 5
12 13 12 12 12 12 12 11 11 11 11 10 10 10 10 10 10 10 10 10 10 10 10 10 10 9 9 10 10 10 9 9 8 8 8 7 7 7 7 6 6 5 5 4
12 11 11 11 11 11 11 10 10 10 10 10 10 10 10 10 9 9 9 9 9 9 9 9 9 9 9 9 9 9 8 8 8 8 7 7 7 6 6 6 5 5 4 4
11 10 10 10 10 10 10 10 10 10 9 9 9 9 9 9 9 8 8 9 9 9 9 9 8 8 8 9 9 8 8 8 7 7 7 7 6 6 6 5 5 5 4 4
12 11 11 11 10 10 9 9 9 9 9 9 9 9 9 9 8 8 8 8 8 8 8 8 8 8 8 8 8 8 8 7 7 7 7 6 6 6 6 5 5 4 4 4
11 11 10 10 10 9 9 9 9 9 9 9 9 8 8 8 8 8 8 8 8 8 8 8 8 8 8 8 8 8 8 7 7 7 6 6 6 6 5 5 5 4 4 4
10 10 10 9 9 9 9 8 8 8 8 8 8 8 8 8 8 8 8 8 8 8 8 8 8 8 8 8 8 8 7 7 7 7 6 6 6 5 5 5 4 4 4 4
10 10 10 9 9 9 9 8 8 8 8 8 8 8 8 8 8 8 8 8 8 8 8 8 8 8 8 7 7 7 7 7 7 6 6 6 5 5 5 5 4 4 4 4
10 10 9 9 9 8 8 8 9 8 8 8 8 8 8 8 8 8 8 8 8 8 8 8 8 8 7 7 7 7 7 7 6 6 6 6 5 5 5 4 4 4 4 3
10 9 9 9 9 9 8 8 9 9 8 8 8 8 8 8 8 8 8 8 8 8 8 8 7 7 7 7 7 7 7 6 6 6 6 5 5 5 5 4 4 4 4 3
9 9 9 9 9 9 9 8 8 9 9 8 8 8 8 8 8 8 8 8 8 7 7 7 7 7 7 7 7 7 6 6 6 6 5 5 5 5 4 4 4 4 4 3
9 9 9 9 9 9 9 9 8 8 8 8 8 8 8 8 8 8 8 7 7 7 7 7 7 7 7 7 6 6 6 6 6 6 5 5 5 5 4 4 4 4 4 3
9 9 9 9 9 9 9 9 8 8 8 8 8 8 8 8 8 7 7 7 7 7 7 7 7 7 6 6 6 6 6 6 6 5 5 5 5 5 4 4 4 4 4 3
9 9 9 9 9 9 9 9 9 9 8 8 8 8 8 8 8 7 7 7 7 7 7 6 6 6 6 6 6 6 6 6 6 5 5 5 5 5 4 4 4 4 4 4
Wind_Speed
4 4 4 4 5 6 5 8 8 8 7 8 6 4 2 2 3 5 6 6 6 6 6 5 5 5 5 5 5 6 7 7 7 6 6 6 6 6 6 6 6 6 6 6
2 2 4 3 2 5 4 4 4 3 6 4 2 1 1 2 3 4 4 5 6 6 6 6 6 6 5 6 6 7 7 7 7 7 7 7 7 8 7 7 7 7 7 7
1 1 4 1 2 3 3 2 5 6 5 0 1 2 1 1 2 3 3 3 5 5 5 5 5 6 7 6 6 7 7 7 7 8 8 8 8 9 8 8 8 8 8 8
3 3 4 5 3 3 5 1 1 1 1 2 2 2 2 2 2 2 3 4 4 4 4 4 4 5 6 6 6 7 7 6 7 8 8 8 9 9 8 8 8 8 8 9
4 4 1 3 0 2 4 1 1 2 3 4 3 3 3 3 3 3 2 3 3 3 4 5 5 6 7 7 6 6 6 6 7 8 9 9 9 9 9 9 10 9 8 9
5 5 7 6 1 1 4 1 2 3 4 4 2 1 2 3 4 4 3 3 3 3 4 5 5 6 7 7 7 7 6 6 7 8 9 10 11 10 9 10 10 10 10 9
5 4 5 3 4 1 4 6 2 3 3 4 2 2 1 3 4 4 4 4 4 4 4 4 5 7 7 6 6 6 8 8 9 9 11 12 12 10 11 11 11 11 12 10
5 4 6 2 1 4 5 1 2 2 2 3 3 2 3 3 4 4 5 5 5 5 5 4 5 6 7 6 6 8 9 10 10 11 11 11 13 11 11 12 13 12 12 11
5 5 2 1 1 1 1 2 1 2 2 4 3 2 2 3 4 4 5 5 5 5 6 5 5 6 7 6 8 10 11 11 12 12 12 11 12 12 11 10 10 10 10 9
1 2 1 1 1 2 2 1 0 1 3 3 3 3 3 3 4 5 5 5 5 6 7 6 6 6 7 8 9 12 13 12 12 13 13 12 10 9 9 9 10 10 10 9
1 2 1 1 1 2 2 3 3 3 2 4 5 5 4 4 4 5 5 5 6 7 8 7 8 9 9 9 11 13 13 12 12 13 13 13 12 10 10 8 9 10 8 8
5 5 4 3 0 1 1 2 3 3 3 4 5 7 7 6 5 6 6 6 7 8 9 9 10 10 9 9 11 14 13 12 11 11 11 12 14 14 19 16 18 16 13 11
3 3 3 2 2 2 2 3 4 5 5 5 6 8 9 8 7 8 8 9 9 10 10 10 11 11 10 10 12 14 14 13 11 11 11 12 12 13 13 14 18 17 15 14
3 4 3 2 2 3 4 6 7 8 7 7 7 9 9 10 10 10 9 9 10 11 11 11 12 12 10 11 14 15 14 15 13 11 11 11 11 11 11 12 10 8 9 12
2 2 4 4 5 6 6 7 9 8 8 9 9 9 10 11 11 10 9 9 11 12 12 12 13 11 10 12 14 14 13 11 11 11 10 11 11 11 10 11 10 8 7 8
5 5 7 7 7 7 7 8 9 9 9 10 10 11 11 11 12 10 9 10 12 12 11 12 12 10 10 13 14 12 12 17 14 11 11 10 10 10 10 9 9 8 7 6
8 7 7 8 8 8 8 8 9 10 10 11 11 11 12 13 13 12 11 11 12 11 10 11 10 9 10 11 12 11 10 12 15 12 10 9 9 9 9 8 8 7 5 5
6 6 7 9 9 10 10 10 10 11 11 12 12 12 12 13 13 12 11 11 12 11 9 8 9 10 10 10 10 9 10 9 9 9 9 8 8 8 8 7 8 7 5 5
8 9 9 9 10 11 11 11 11 11 11 11 12 12 11 11 10 10 10 11 11 10 6 7 12 11 10 10 11 9 10 10 9 8 8 9 8 7 7 7 7 6 6 5
10 11 11 11 11 12 12 12 12 11 10 11 13 13 12 10 10 10 11 9 6 5 6 8 9 9 9 9 11 8 9 10 9 9 8 7 7 7 6 7 6 6 5 4
13 13 13 13 12 12 12 12 12 12 11 11 12 12 11 10 9 9 10 8 4 5 8 10 8 7 7 8 10 8 9 9 9 8 8 7 7 7 6 6 5 5 4 4
12 13 14 13 13 12 10 10 11 12 12 11 11 12 11 10 9 8 7 5 4 7 6 6 6 8 9 10 7 8 8 8 7 7 7 7 7 6 6 6 5 4 4 4
11 12 13 13 12 12 11 10 10 11 11 10 10 10 9 7 6 7 5 2 4 7 6 5 8 12 12 8 7 8 8 8 7 7 6 6 6 6 5 5 5 4 4 4
11 11 11 12 12 12 11 9 9 8 9 9 8 8 9 7 5 3 4 7 8 9 6 7 12 13 11 7 7 7 7 6 6 6 6 5 5 5 5 5 4 4 4 5
11 11 12 12 11 9 9 10 10 9 9 7 7 6 5 5 5 5 5 6 9 9 6 8 11 11 7 6 6 6 6 6 6 6 6 5 5 5 5 5 5 5 4 5
10 9 8 8 8 8 8 8 7 6 7 6 5 4 5 5 6 6 5 6 7 8 6 5 5 6 5 5 5 6 5 5 6 5 6 6 6 6 5 6 7 5 5 6
10 8 8 7 6 6 7 7 7 6 6 6 5 4 5 5 5 6 6 6 5 5 5 4 4 4 4 4 4 4 4 5 5 5 5 5 5 6 6 7 7 7 7 8
Wind_Direction
216 211 172 163 166 165 155 167 171 214 221 251 256 239 224 177 154 149 158 162 160 158 158 153 143 142 146 144 141 140 140 145 147 139 132 128 125 123 120 121 127 127 124 121
36 48 129 108 119 143 139 154 177 189 242 262 295 108 113 117 134 154 164 169 166 162 164 161 156 156 154 153 148 142 143 146 140 135 134 130 124 118 112 106 103 105 107 107
180 323 83 133 225 170 155 158 169 198 230 298 46 90 100 105 111 128 125 140 157 160 165 167 165 163 167 161 151 147 148 149 146 142 138 134 127 119 117 112 103 96 94 94
132 121 189 240 305 146 124 77 352 206 202 145 142 109 64 62 102 114 121 129 140 148 157 157 152 151 148 148 150 149 147 148 147 143 137 131 125 122 115 107 103 97 93 92
126 154 191 270 264 135 131 328 275 167 140 128 127 69 24 29 47 74 109 129 144 155 154 147 147 146 138 140 141 140 142 146 145 142 137 131 125 119 112 106 98 92 89 92
130 152 205 224 273 308 111 278 255 164 161 159 130 84 288 22 33 49 59 85 105 114 120 131 135 139 140 144 144 150 148 140 135 134 131 127 121 114 107 106 103 97 87 84
146 179 235 247 295 90 166 225 219 170 171 168 177 197 126 47 38 44 54 57 73 92 102 115 127 132 135 139 146 139 127 120 117 118 120 120 114 112 112 107 102 96 90 81
140 167 230 289 68 172 208 207 125 143 138 136 136 113 87 69 58 56 54 53 63 81 82 87 111 125 126 130 125 118 115 114 112 111 112 113 112 110 108 108 104 99 94 84
178 199 237 290 208 276 164 139 132 127 126 134 138 135 94 72 61 61 62 54 57 75 78 74 88 116 123 117 116 117 114 112 110 105 102 106 110 113 110 107 106 102 98 92
154 244 252 352 9 12 43 90 73 124 139 136 141 132 102 79 61 61 65 66 69 77 80 73 75 89 101 109 115 114 112 110 108 105 100 95 93 97 102 106 107 105 103 99
193 235 300 306 10 6 17 48 63 60 88 134 134 128 115 94 77 73 72 71 78 87 88 82 81 84 91 104 113 109 107 105 102 101 101 94 84 75 84 77 104 112 109 107
208 209 186 216 201 78 91 78 96 93 82 89 119 123 114 104 92 88 86 82 85 87 89 87 87 86 87 97 110 111 108 104 102 105 104 103 98 84 68 79 81 85 95 103
189 162 149 140 99 92 123 114 102 99 102 98 98 109 109 104 95 90 87 86 88 89 89 89 89 87 86 92 102 107 110 110 110 109 109 108 108 108 100 77 70 73 82 93
140 126 131 143 136 106 107 103 100 95 93 97 100 101 101 99 96 92 89 89 92 91 89 90 90 88 90 97 100 103 105 108 110 109 110 110 111 111 112 112 103 82 69 83
134 146 149 132 118 109 109 110 107 105 102 98 100 104 104 102 99 95 92 94 93 90 87 89 89 88 92 99 101 103 105 107 105 105 106 108 109 108 107 107 108 105 97 82
121 114 127 131 129 126 124 123 120 118 113 108 104 103 103 102 99 93 90 94 95 92 91 90 89 91 97 101 102 100 104 113 113 112 111 110 110 112 113 113 113 114 116 118
144 149 147 142 137 133 131 129 127 123 118 115 112 110 108 106 100 94 89 87 89 88 89 93 96 97 100 105 107 110 111 117 116 113 114 117 119 121 122 123 124 124 124 128
157 150 149 148 143 135 129 124 122 119 119 119 115 110 109 109 108 104 100 96 90 81 75 88 101 103 103 107 110 114 116 117 118 118 118 117 118 120 122 124 128 127 122 114
131 127 126 129 132 130 126 122 119 115 116 117 114 110 107 107 107 106 103 99 98 92 81 94 106 105 107 115 116 115 119 121 119 118 120 120 119 123 128 131 133 135 136 135
126 126 124 122 123 124 124 122 119 117 117 118 115 113 109 108 109 106 99 91 88 107 114 109 106 105 108 117 117 118 122 124 126 125 125 128 130 131 134 137 140 143 146 149
129 128 126 123 122 121 123 125 124 121 119 119 119 119 117 112 111 110 107 100 79 96 108 110 108 111 111 118 116 119 122 126 130 134 137 137 137 138 141 145 149 152 157 161
128 128 126 124 121 119 120 122 123 123 120 118 118 119 118 114 108 97 89 108 120 117 111 111 116 121 123 118 118 121 123 126 129 133 137 141 144 147 151 156 161 168 173 178
124 125 124 124 121 118 115 117 122 125 125 126 128 128 124 121 121 121 116 110 118 122 116 119 127 125 120 117 123 126 129 132 136 142 147 151 154 157 162 168 176 182 188 195
119 119 118 116 114 114 115 115 112 113 115 115 121 128 127 121 103 92 117 128 130 123 117 127 129 127 121 123 127 132 136 141 146 149 152 154 159 165 172 179 188 197 204 209
118 117 119 121 121 122 120 115 108 106 106 107 107 110 115 122 129 133 122 125 129 122 118 127 129 127 127 132 137 141 147 154 157 158 162 167 174 181 188 195 200 207 213 217
117 118 119 121 124 126 127 124 122 124 123 118 110 108 106 104 112 117 118 124 126 126 127 126 127 124 129 137 144 152 156 158 161 168 176 181 187 192 199 206 213 218 222 226
105 107 107 105 106 117 124 127 131 135 137 134 128 126 124 121 120 124 125 126 127 127 128 129 131 133 137 143 152 159 163 167 172 178 185 191 197 204 210 214 220 226 229 231
Height
1456 1453 1453 1454 1457 1460 1463 1470 1477 1473 1470 1462 1459 1458 1458 1459 1461 1463 1464 1466 1469 1471 1473 1475 1477 1480 1482 1484 1486 1488 1490 1493 1496 1498 1501 1505 1508 1511 1514 1518 1520 1522 1525 1528
1456 1452 1452 1456 1456 1457 1459 1462 1464 1464 1465 1458 1457 1457 1458 1459 1460 1462 1464 1466 1468 1471 1473 1475 1477 1480 1482 1484 1486 1489 1491 1493 1496 1499 1502 1505 1508 1511 1514 1517 1520 1522 1524 1526
1466 1458 1456 1466 1460 1458 1459 1459 1461 1464 1461 1458 1458 1457 1458 1459 1460 1462 1464 1466 1468 1470 1472 1475 1477 1479 1482 1484 1486 1488 1491 1494 1496 1499 1502 1505 1508 1511 1514 1516 1519 1521 1523 1525
1469 1465 1476 1467 1455 1455 1458 1460 1459 1458 1458 1458 1459 1459 1459 1460 1460 1461 1463 1465 1467 1469 1471 1474 1476 1479 1481 1484 1486 1488 1491 1493 1496 1499 1502 1504 1507 1510 1513 1515 1518 1520 1522 1525
1475 1475 1471 1463 1456 1457 1459 1462 1458 1458 1459 1459 1460 1459 1460 1461 1461 1462 1463 1465 1466 1468 1470 1472 1475 1478 1480 1482 1485 1488 1490 1493 1496 1498 1501 1504 1506 1509 1511 1514 1517 1519 1522 1524
1473 1474 1479 1464 1455 1454 1458 1464 1457 1457 1458 1460 1461 1464 1463 1462 1462 1463 1464 1465 1466 1467 1469 1470 1473 1476 1479 1481 1483 1486 1488 1492 1495 1498 1500 1502 1505 1508 1510 1513 1516 1518 1521 1523
1470 1470 1466 1457 1454 1455 1468 1464 1456 1457 1458 1459 1461 1462 1463 1462 1463 1463 1464 1464 1465 1467 1468 1470 1472 1475 1477 1479 1481 1485 1488 1491 1494 1496 1499 1502 1504 1507 1510 1512 1515 1517 1520 1523
1470 1471 1469 1455 1454 1457 1458 1454 1454 1456 1457 1459 1460 1460 1461 1462 1463 1463 1464 1464 1466 1466 1468 1469 1471 1474 1476 1478 1481 1484 1487 1490 1492 1495 1498 1501 1504 1507 1510 1512 1515 1517 1520 1523
1461 1463 1456 1454 1454 1454 1454 1454 1454 1455 1457 1458 1459 1460 1461 1462 1463 1463 1464 1465 1466 1467 1468 1469 1471 1473 1475 1478 1480 1483 1486 1489 1492 1495 1497 1501 1504 1506 1510 1513 1516 1518 1521 1524
1457 1455 1454 1453 1454 1454 1454 1454 1454 1455 1456 1457 1458 1460 1461 1462 1463 1463 1464 1465 1466 1467 1468 1470 1471 1473 1475 1477 1480 1483 1485 1489 1492 1494 1498 1502 1505 1508 1511 1514 1517 1520 1523 1526
1456 1454 1454 1453 1454 1454 1455 1455 1455 1456 1456 1457 1458 1459 1461 1462 1463 1464 1465 1466 1467 1468 1470 1471 1472 1474 1476 1478 1480 1483 1486 1489 1492 1496 1499 1503 1506 1510 1514 1517 1520 1523 1526 1529
1454 1451 1452 1453 1453 1454 1455 1455 1455 1455 1456 1457 1458 1459 1461 1463 1465 1466 1466 1468 1469 1470 1471 1473 1474 1475 1477 1480 1482 1484 1487 1491 1495 1498 1502 1505 1508 1512 1517 1521 1525 1528 1530 1532
1448 1449 1450 1451 1453 1453 1454 1454 1455 1456 1457 1457 1459 1460 1462 1464 1466 1467 1468 1470 1471 1472 1474 1475 1476 1478 1480 1482 1485 1487 1490 1494 1498 1502 1505 1508 1511 1515 1519 1524 1528 1531 1534 1537
1447 1448 1450 1451 1452 1453 1454 1454 1455 1456 1458 1459 1460 1462 1463 1465 1467 1469 1470 1472 1474 1476 1477 1479 1480 1482 1484 1487 1489 1491 1495 1498 1502 1505 1509 1512 1516 1519 1523 1526 1530 1534 1537 1539
1446 1447 1448 1450 1451 1452 1454 1455 1456 1457 1459 1461 1462 1463 1465 1467 1469 1472 1474 1476 1478 1480 1482 1483 1485 1488 1490 1493 1495 1497 1500 1503 1507 1510 1514 1517 1520 1524 1528 1531 1534 1537 1539 1542
1444 1446 1447 1449 1450 1452 1454 1455 1457 1459 1460 1463 1464 1466 1468 1470 1473 1476 1478 1481 1482 1484 1487 1489 1491 1494 1497 1499 1500 1503 1506 1509 1512 1515 1519 1522 1526 1529 1531 1534 1537 1540 1542 1544
1442 1445 1446 1448 1450 1452 1454 1456 1458 1460 1462 1465 1467 1469 1472 1474 1477 1480 1483 1485 1487 1490 1493 1495 1497 1500 1502 1505 1506 1509 1511 1515 1518 1520 1524 1527 1530 1532 1535 1538 1540 1543 1545 1547
1441 1443 1445 1447 1449 1452 1455 1458 1460 1462 1465 1468 1470 1473 1476 1478 1481 1484 1487 1490 1493 1495 1498 1500 1503 1505 1508 1510 1512 1514 1517 1520 1522 1525 1528 1531 1534 1536 1539 1541 1543 1545 1547 1549
1441 1443 1446 1448 1450 1453 1456 1459 1462 1465 1468 1471 1474 1477 1480 1483 1486 1489 1492 1495 1497 1500 1503 1506 1508 1511 1513 1515 1517 1519 1521 1524 1526 1529 1532 1535 1537 1539 1541 1544 1546 1547 1549 1551
1441 1444 1447 1449 1452 1455 1458 1462 1465 1469 1472 1475 1478 1481 1485 1488 1491 1494 1497 1499 1502 1505 1508 1510 1513 1515 1517 1519 1521 1523 1525 1528 1530 1532 1535 1537 1539 1542 1544 1546 1547 1549 1550 1551
1442 1445 1448 1451 1455 1458 1462 1465 1469 1472 1476 1480 1482 1485 1489 1492 1496 1498 1501 1503 1507 1510 1512 1515 1517 1519 1521 1523 1525 1527 1529 1531 1533 1535 1537 1539 1541 1543 1545 1547 1548 1550 1551 1552
1444 1448 1451 1455 1458 1462 1466 1470 1473 1476 1480 1484 1487 1490 1493 1496 1499 1502 1505 1508 1511 1513 1516 1518 1520 1522 1524 1526 1528 1530 1532 1534 1536 1538 1539 1541 1543 1545 1546 1548 1549 1550 1551 1552
1447 1451 1455 1459 1462 1466 1470 1474 1478 1481 1484 1488 1491 1494 1497 1500 1503 1505 1508 1512 1514 1516 1519 1521 1523 1525 1527 1529 1531 1532 1534 1536 1538 1539 1541 1543 1544 1546 1547 1548 1549 1550 1551 1551
1451 1455 1459 1463 1467 1471 1475 1479 1482 1486 1489 1492 1495 1498 1501 1504 1506 1509 1512 1514 1517 1519 1521 1523 1525 1527 1529 1530 1532 1534 1536 1537 1539 1541 1542 1544 1545 1546 1547 1548 1549 1549 1550 1550
1456 1460 1464 1468 1471 1475 1479 1482 1486 1489 1493 1496 1499 1502 1505 1507 1509 1511 1514 1516 1518 1521 1523 1525 1527 1528 1530 1532 1533 1535 1537 1538 1540 1541 1543 1544 1545 1546 1547 1547 1548 1548 1548 1548
1461 1465 1469 1473 1476 1480 1483 1486 1490 1493 1496 1499 1502 1504 1507 1509 1511 1513 1515 1518 1520 1522 1524 1526 1528 1529 1531 1532 1534 1536 1538 1539 1540 1541 1542 1543 1544 1545 1546 1546 1546 1547 1547 1547
1466 1470 1474 1477 1481 1484 1487 1490 1493 1496 1499 1501 1504 1506 1508 1511 1512 1514 1516 1518 1521 1523 1525 1527 1528 1530 1531 1533 1535 1536 1538 1539 1540 1541 1542 1542 1543 1544 1544 1545 1545 1545 1545 1544